Theta_e
309 315 319 320 324 331 335 336 336 337 339 337 335 335 336 336 357 374 359 358 359 357 350 347 347 348 347 344 341 335 333 335 334 331 333 336 337 338 337 335 337 338 338 339 339 337 331 327 330
317 322 321 321 325 332 334 334 335 336 335 334 333 334 335 360 355 363 362 358 361 357 351 349 347 347 346 346 345 339 334 337 333 332 334 337 338 338 339 342 339 339 340 343 342 331 325 327 330
313 321 320 321 323 329 332 334 335 335 334 333 333 333 335 354 355 360 359 359 363 360 354 351 345 346 346 346 346 343 337 340 333 332 334 336 338 339 344 345 343 343 340 338 334 328 328 328 332
317 320 320 321 325 328 329 332 334 334 333 332 332 332 340 347 353 358 356 357 363 361 358 354 345 344 344 344 346 345 341 342 334 332 334 335 337 339 343 346 345 344 341 332 326 328 331 329 333
319 319 318 319 322 325 328 330 331 331 333 332 331 331 336 350 354 357 356 358 361 359 361 357 346 345 344 344 346 346 344 343 334 333 336 336 336 337 340 344 346 344 335 324 325 327 330 336 339
318 319 319 319 320 323 325 326 327 328 330 331 330 329 329 347 352 358 356 357 358 361 362 357 347 345 344 344 346 347 346 343 335 335 338 337 336 337 337 338 341 339 330 327 327 328 330 333 339
318 318 318 319 320 321 323 325 325 326 327 328 327 325 326 333 353 355 356 356 355 358 361 357 350 345 345 345 346 347 346 342 337 337 340 338 337 336 337 337 336 331 326 327 328 329 331 338 341
318 319 319 319 319 320 323 323 323 323 324 325 325 321 323 346 350 353 356 356 354 354 358 355 354 353 351 350 348 347 346 344 341 340 343 341 338 338 337 335 331 329 325 327 329 329 328 333 338
318 317 319 319 320 321 322 321 321 322 320 321 322 321 328 337 343 350 353 354 354 354 355 353 353 352 352 354 348 347 346 345 344 345 345 343 341 340 342 337 335 331 329 323 327 329 329 329 332
318 318 317 319 320 321 321 321 320 320 319 319 320 321 322 326 335 343 349 351 354 354 354 352 350 349 346 348 349 347 349 347 346 348 348 344 344 345 345 343 340 340 333 330 326 325 328 329 329
317 318 319 318 320 320 319 319 319 319 319 319 319 320 320 321 325 338 344 346 355 354 353 351 349 347 346 347 347 348 348 348 347 347 347 341 343 345 342 345 342 340 340 333 329 325 323 325 330
316 317 318 318 319 319 317 318 318 318 319 320 320 320 320 321 321 326 337 342 353 354 354 353 353 349 348 349 347 344 346 345 345 345 345 346 343 344 345 344 344 342 340 336 338 337 333 326 328
316 316 317 318 318 318 317 317 317 318 319 320 320 320 320 320 322 327 333 337 354 349 348 347 334 352 351 354 351 345 347 346 346 346 346 348 343 345 344 343 345 346 342 340 339 338 339 334 332
317 317 317 318 318 318 317 317 318 319 320 319 320 320 320 320 321 327 327 337 350 351 338 336 339 351 355 356 352 350 349 349 348 349 348 348 348 346 347 344 345 343 344 342 342 340 339 338 337
317 317 317 317 317 317 319 318 319 320 320 321 321 321 320 321 321 325 326 329 348 345 338 332 342 347 350 353 353 352 351 349 349 347 348 349 349 349 350 348 345 342 341 340 341 343 344 340 340
317 317 317 318 319 317 319 319 321 321 321 321 321 320 321 321 322 322 325 335 347 353 348 348 342 339 350 355 352 349 352 351 350 350 351 350 352 349 349 349 350 351 349 349 349 348 347 342 344
318 319 318 318 319 319 318 319 321 322 321 322 322 323 323 323 325 325 328 342 341 341 348 351 353 355 354 357 355 353 353 352 344 336 335 348 350 348 348 347 347 348 349 350 350 351 340 348 348
320 320 319 319 319 320 320 320 321 323 323 322 323 323 324 324 327 329 330 340 335 335 341 345 353 356 353 350 349 346 348 353 349 347 351 352 347 338 334 340 338 345 345 348 347 346 346 346 346
319 320 320 319 320 321 321 321 321 322 323 323 323 324 325 325 328 328 330 337 335 339 338 340 341 351 352 353 346 346 347 347 345 344 346 352 349 339 335 330 330 338 345 345 344 344 339 340 340
318 318 320 320 320 322 322 321 322 322 323 323 324 324 325 326 326 330 330 328 336 344 343 341 341 347 346 344 339 338 337 336 338 338 344 346 351 349 349 343 344 345 341 340 339 326 326 328 332
318 318 319 321 320 320 321 322 322 322 323 324 324 325 324 326 330 330 331 331 340 344 345 346 347 348 347 344 338 339 339 335 334 339 344 347 349 351 349 348 347 347 342 333 326 327 321 324 328
318 318 320 320 321 321 321 322 324 323 324 323 324 326 325 326 331 332 334 339 343 341 340 339 340 341 340 345 346 348 348 347 343 338 342 336 340 340 343 339 341 342 339 328 325 326 324 327 328
319 320 320 320 320 320 320 322 321 323 323 325 327 327 327 332 334 335 336 336 334 334 333 333 332 332 333 335 338 340 337 333 332 332 330 328 327 330 330 329 330 332 337 339 333 329 329 329 336
319 320 320 320 319 322 320 320 321 324 325 325 328 327 329 333 333 331 330 330 330 330 330 329 329 328 328 327 327 329 329 328 328 328 326 325 325 324 327 325 326 328 328 330 330 334 337 338 338
320 321 320 321 323 322 321 320 322 325 327 326 327 331 332 331 330 329 328 327 327 327 328 327 327 326 326 326 326 326 326 327 326 324 325 324 324 323 323 321 321 322 323 323 323 325 327 330 333
321 322 321 324 323 322 322 324 323 326 329 328 328 329 330 330 328 328 327 326 325 324 324 325 325 325 324 324 324 324 324 324 323 324 323 323 322 322 321 321 320 319 319 320 322 322 323 324 326
321 321 321 324 327 334 329 324 324 324 329 329 328 329 329 329 328 326 325 324 323 323 323 323 323 323 322 322 322 322 322 321 322 321 321 321 320 320 320 318 318 318 317 317 318 319 320 322 323
322 321 323 324 333 334 332 329 327 326 330 330 330 329 329 328 326 325 324 323 322 322 322 321 321 321 321 320 320 319 319 320 320 319 319 318 318 317 317 316 316 316 315 315 315 316 316 317 318
321 324 325 328 329 335 335 335 332 332 331 330 328 328 328 326 324 324 322 321 321 320 320 319 319 319 319 318 318 318 319 318 318 318 317 317 316 315 314 314 313 312 311 311 311 311 311 312 313
321 323 327 334 332 331 331 336 331 331 331 330 329 328 326 324 323 322 320 319 319 318 318 318 317 317 317 317 317 318 318 317 317 317 316 315 314 312 311 311 310 309 309 309 308 308 308 308 309
Wind_Speed
12 11 11 13 7 8 16 19 21 21 3 2 7 6 11 12 12 7 15 9 26 25 25 24 23 22 20 19 18 17 16 15 16 16 16 16 16 16 16 16 14 13 12 11 8 8 8 9 10
10 14 16 6 9 13 15 20 21 20 18 12 4 5 12 14 14 17 14 5 25 25 24 21 23 23 22 20 18 17 17 16 16 16 15 15 16 16 16 15 14 13 11 10 8 8 9 9 10
11 13 8 5 14 16 17 22 20 10 14 9 2 4 10 8 10 8 10 16 23 23 24 21 23 22 21 20 19 20 19 18 18 17 16 15 15 16 15 14 13 11 10 9 8 9 9 10 9
8 8 7 12 19 22 26 24 27 4 10 5 1 3 7 10 4 7 9 16 20 20 21 21 23 21 20 20 20 20 21 19 19 18 16 16 16 15 15 13 11 9 9 9 9 10 10 9 8
18 8 11 15 22 23 22 23 22 12 7 12 11 9 2 15 9 10 10 15 19 20 22 20 23 21 20 19 20 21 22 20 19 18 16 16 16 16 15 13 10 7 8 9 11 12 12 11 8
10 11 14 17 23 22 21 24 24 15 8 9 6 5 6 18 13 11 13 15 18 24 21 20 23 20 19 18 19 22 22 21 19 18 16 15 16 16 16 14 12 9 8 10 10 11 12 12 11
17 14 18 22 21 21 22 22 25 11 10 11 8 11 9 8 18 9 12 17 19 23 20 20 23 22 19 18 20 22 21 20 19 18 16 16 16 17 16 15 13 11 11 11 12 12 11 10 10
13 14 24 21 18 22 20 5 9 3 11 12 15 7 7 10 12 8 12 19 21 22 21 20 22 22 21 20 21 22 21 20 18 17 16 15 16 16 17 16 15 13 13 13 12 13 13 13 12
19 15 17 23 22 16 20 6 5 5 2 10 3 9 4 9 7 10 15 18 25 25 28 27 24 23 22 19 21 20 18 17 17 17 16 15 14 16 16 16 14 14 13 13 14 14 13 14 14
18 15 24 21 20 18 15 2 3 6 8 13 10 13 14 7 8 13 14 18 21 22 26 30 29 25 25 22 21 20 18 18 17 15 15 15 14 16 16 15 18 16 14 14 15 15 16 16 15
23 21 19 21 24 13 12 15 4 10 12 11 16 17 17 14 12 15 22 21 26 26 27 29 33 29 28 26 21 19 17 17 14 14 15 15 15 19 16 21 20 19 18 17 17 17 19 18 16
23 23 22 25 25 5 10 14 15 13 15 12 14 9 13 13 15 17 20 24 20 17 22 6 18 26 19 28 24 22 21 21 19 19 19 15 20 20 21 20 23 20 20 19 18 17 17 17 18
24 23 22 21 22 20 8 16 18 17 13 14 13 14 12 15 14 15 17 23 19 23 19 8 22 9 19 10 22 24 24 25 22 23 23 21 19 19 21 20 21 25 21 23 19 22 23 21 18
21 21 21 23 23 16 19 19 17 17 17 15 16 15 14 15 19 15 17 9 19 19 31 16 8 6 15 5 8 12 12 14 19 19 23 23 20 19 16 19 16 16 16 20 25 22 23 24 21
23 18 21 21 23 21 17 21 22 19 15 17 17 14 14 15 17 11 18 13 30 23 14 16 25 29 25 19 11 12 8 9 6 12 8 21 21 19 14 14 17 17 16 18 18 14 15 21 18
22 22 20 21 20 23 18 20 18 21 17 16 12 12 14 13 15 23 24 16 26 27 38 40 39 26 25 20 16 14 14 8 7 10 12 12 13 16 18 21 17 18 18 18 17 22 16 18 17
20 17 25 23 23 22 24 21 21 11 14 12 12 13 13 12 14 19 18 24 29 23 25 24 31 30 28 21 19 16 17 16 12 14 17 19 11 11 12 20 25 20 18 20 21 15 19 14 14
19 21 21 21 21 26 22 14 23 14 14 12 11 12 11 13 12 12 11 26 19 22 25 22 28 25 20 19 12 12 12 10 14 20 20 13 8 9 19 18 27 29 19 19 21 25 21 13 18
21 21 22 17 19 14 15 18 18 14 14 14 12 11 10 11 13 16 19 24 21 23 22 20 15 24 21 19 19 18 13 13 10 7 7 4 6 13 21 28 34 31 28 15 15 6 14 17 23
23 23 21 16 17 8 14 16 18 16 11 13 12 10 10 10 8 11 13 9 20 21 20 17 13 10 11 15 10 4 3 3 4 6 11 9 6 12 16 20 26 28 10 11 11 18 19 15 17
22 23 21 15 18 13 10 13 12 18 12 12 11 2 5 8 13 11 9 9 20 18 14 14 12 7 4 6 6 1 2 2 4 8 10 8 7 3 7 14 20 22 15 8 15 29 21 22 15
22 22 19 14 12 14 19 15 15 16 15 12 10 9 9 12 13 12 11 14 18 15 14 14 12 8 5 7 9 8 7 7 7 8 9 13 10 11 7 7 14 13 15 13 8 14 25 26 18
22 18 20 16 17 11 18 13 14 18 18 18 10 8 10 14 14 13 12 16 14 14 13 13 13 12 11 11 13 11 12 9 7 7 11 11 11 8 10 11 10 10 10 11 15 21 22 26 20
19 18 17 19 14 16 19 15 14 11 23 21 16 14 11 16 15 13 16 14 13 14 14 13 12 13 13 15 14 15 11 9 7 10 11 11 12 11 10 8 8 10 11 9 9 8 16 24 28
18 17 11 12 13 14 21 20 13 3 4 19 17 14 15 14 13 12 12 13 14 15 14 14 12 12 11 11 11 10 7 5 4 7 9 10 12 14 18 19 16 14 13 16 19 19 20 21 21
21 19 12 20 14 17 21 21 19 17 17 16 15 15 14 13 13 14 12 13 14 12 11 12 11 10 9 9 9 8 7 7 6 7 9 10 12 13 15 15 17 18 18 17 17 19 20 23 26
20 20 19 17 3 2 6 15 17 16 19 20 16 15 15 15 14 14 12 14 15 12 10 8 9 8 7 7 6 5 5 6 6 7 8 9 12 13 16 18 18 19 18 19 19 19 22 23 25
24 19 18 14 6 11 8 4 6 15 19 20 17 15 14 14 14 13 11 12 10 14 10 7 7 6 5 5 5 5 6 6 7 9 10 11 13 14 18 20 20 21 21 21 21 21 21 22 23
16 12 4 7 7 5 6 2 12 7 14 17 19 16 14 13 15 13 12 13 13 11 11 7 6 4 4 5 4 5 6 7 8 9 10 12 15 16 18 20 20 20 21 22 23 22 22 21 21
21 17 14 4 7 7 5 4 12 6 7 3 11 19 16 14 14 12 12 11 11 8 6 9 5 5 6 6 6 6 6 7 9 10 12 13 15 16 18 20 21 22 22 23 23 26 25 25 24
Wind_Direction
264 272 262 260 247 229 253 254 258 270 190 114 52 346 341 315 30 91 91 79 126 134 148 150 154 158 157 158 159 161 159 158 158 157 154 149 147 146 143 142 143 142 140 138 135 122 125 124 121
264 265 244 268 235 246 249 246 257 274 95 89 101 250 243 72 43 113 95 126 132 140 149 156 158 162 163 165 168 168 167 165 164 161 158 156 155 155 150 149 148 143 140 140 140 136 137 136 131
262 263 244 224 234 240 253 254 243 255 103 127 119 106 300 87 49 71 89 127 127 142 148 168 162 165 170 172 175 174 173 171 169 165 164 164 164 162 159 155 154 148 146 148 147 143 144 144 139
237 233 251 253 239 227 240 266 281 162 121 101 58 264 88 78 64 62 117 142 134 147 157 170 169 172 175 178 179 178 177 176 173 170 171 170 170 171 170 166 161 158 159 160 155 154 155 152 146
234 258 233 238 239 251 261 240 251 281 169 172 178 243 74 115 101 119 141 150 150 153 165 173 175 176 179 181 181 181 180 178 177 175 175 175 175 176 179 180 179 176 174 168 165 165 167 165 164
228 232 247 241 249 251 243 259 269 262 271 234 214 199 252 127 155 147 152 158 160 149 152 172 179 178 181 181 182 182 180 180 179 181 179 179 181 183 184 187 189 191 183 177 176 176 178 178 179
241 237 237 251 262 265 244 235 241 235 248 251 268 266 255 181 123 158 167 165 164 156 153 163 172 178 182 181 180 181 181 183 183 186 187 186 188 190 190 192 194 193 192 189 184 186 191 198 197
231 251 258 251 254 262 265 157 99 175 247 261 257 256 261 101 127 163 182 183 171 164 152 166 169 170 170 170 176 180 183 186 188 191 195 195 195 198 196 197 199 199 199 200 199 198 198 202 210
232 247 248 247 256 256 265 198 126 209 340 293 257 229 54 108 171 190 206 209 175 166 158 169 174 170 166 163 171 180 186 191 191 195 200 200 198 205 206 205 209 207 207 210 212 213 215 216 220
229 232 243 255 257 261 301 119 194 157 221 253 242 245 253 155 220 215 217 212 136 161 168 167 168 176 177 168 179 176 179 183 188 196 204 200 197 213 205 211 209 215 218 219 221 225 227 228 229
225 240 248 242 262 286 297 310 167 245 217 231 228 231 240 238 228 235 225 227 170 171 170 162 167 176 182 166 171 169 176 175 179 190 209 206 212 216 208 211 215 220 222 225 226 228 231 235 238
231 232 243 265 277 266 280 286 280 267 246 263 255 257 259 232 217 228 243 229 166 132 94 70 140 165 188 161 158 171 178 178 183 190 198 210 214 224 208 211 212 220 216 225 221 234 239 233 230
232 238 239 253 259 272 239 260 259 257 264 251 256 263 247 255 239 220 229 258 117 117 86 107 122 159 232 152 168 172 187 179 190 191 196 203 213 224 214 218 214 214 207 220 212 220 232 224 227
235 236 245 243 261 248 251 252 249 250 248 251 248 249 243 234 247 199 233 232 125 124 111 66 261 218 225 193 127 162 160 169 189 190 201 202 211 233 227 225 244 249 228 218 218 213 218 212 214
254 246 245 237 247 257 246 245 242 250 233 247 215 225 243 229 239 205 235 232 134 140 154 167 165 225 226 196 170 158 187 169 175 230 232 211 214 223 248 242 244 245 257 273 272 246 227 222 217
243 243 248 233 231 238 240 254 249 231 217 230 220 215 217 225 215 225 227 183 129 149 156 162 167 181 183 156 183 177 192 184 217 248 272 250 231 234 239 247 249 233 239 245 256 255 272 252 253
232 241 234 245 246 215 220 239 252 202 201 211 218 210 217 204 214 219 210 146 150 156 159 175 165 166 178 178 174 189 178 180 198 213 235 254 274 248 283 272 265 254 247 241 244 246 229 267 280
221 228 241 243 233 236 214 217 250 178 189 211 228 212 204 200 197 194 188 154 170 174 169 187 160 165 163 166 170 174 171 174 193 199 219 238 255 233 263 269 281 276 271 260 267 276 287 282 287
246 239 227 236 237 198 217 220 240 243 196 226 204 231 219 199 182 184 201 170 189 185 151 133 128 161 160 171 178 187 194 208 219 246 258 208 217 216 219 232 241 240 237 263 303 323 347 329 321
235 251 246 221 250 245 202 229 241 242 247 196 216 233 225 201 158 173 177 157 88 89 95 101 112 135 179 204 212 175 169 172 241 263 286 286 212 218 235 232 233 240 264 280 314 357 358 337 312
229 238 247 251 220 233 244 232 262 274 238 217 216 244 271 256 143 137 110 91 90 76 80 88 97 105 123 114 154 155 88 23 317 309 329 344 346 315 241 257 261 266 264 81 320 319 302 260 264
229 226 244 239 261 242 216 243 218 234 260 242 182 210 231 250 125 120 121 97 88 84 73 72 74 73 56 74 88 78 47 50 27 15 346 2 11 6 337 338 309 289 262 280 216 218 241 232 222
230 224 221 232 229 270 279 228 250 205 216 240 180 176 210 106 107 113 112 102 99 97 87 82 77 69 64 83 88 92 76 56 31 12 355 354 5 340 351 332 326 24 356 311 259 225 220 221 238
214 229 226 216 220 233 239 261 252 254 199 211 172 175 148 109 106 103 105 112 114 121 109 103 94 81 73 70 73 76 68 54 29 3 360 351 341 350 350 357 347 320 320 324 316 293 268 263 260
200 217 220 223 221 236 219 224 245 321 96 181 153 145 119 113 122 126 137 141 139 124 121 121 105 94 84 76 72 69 55 35 23 4 354 357 336 327 324 327 332 328 314 301 303 300 296 290 281
202 205 212 215 224 230 221 222 221 181 94 34 106 127 125 143 144 156 129 132 121 112 103 106 106 90 80 70 61 49 35 19 12 9 349 329 312 313 320 324 315 312 306 304 298 293 286 285 289
195 212 225 242 357 324 253 237 212 166 129 150 147 154 160 156 141 127 132 130 127 114 99 91 94 86 68 64 57 51 30 6 349 337 330 321 324 322 315 321 317 314 312 309 306 302 294 288 286
228 209 217 232 192 249 237 263 181 174 146 157 170 150 156 136 140 138 130 120 118 121 114 104 92 82 71 55 46 23 1 348 343 340 338 332 328 327 320 316 317 318 317 315 311 304 298 295 298
208 222 200 299 226 238 211 239 299 7 350 157 155 162 150 153 144 140 133 140 149 137 122 102 75 56 51 31 12 359 348 342 337 332 329 327 322 322 320 319 321 322 320 316 313 311 306 301 302
212 195 174 220 223 252 248 152 214 139 286 121 353 158 154 164 146 145 135 148 123 97 87 85 48 23 14 2 348 341 336 333 328 327 327 323 324 328 327 320 315 309 304 299 295 293 289 293 293